Regional Weather Roundup
Issued by NWS Northern Indiana

Home | Current Version | Previous Version | Text Only | Print | Product List | Glossary Off
Versions: 1 2 3 4 5 6 7 8 9 10 11 12 13 14 15 16 17 18 19 20 21 22 23 24 25 26 27 28 29 30 31 32 33 34 35 36 37 38 39 40 41 42 43 44 45 46 47 48 49 50

000
ASUS43 KIWX 021110
RWRIWX

KIWX WEATHER ROUNDUP
NATIONAL WEATHER SERVICE NORTHERN INDIANA
600 AM EST MON MAR 02 2015

NOTE: "FAIR" INDICATES FEW OR NO CLOUDS BELOW 12,000 FEET WITH NO
SIGNIFICANT WEATHER AND/OR OBSTRUCTIONS TO VISIBILITY.

* THESE STATIONS ARE NOT UNDER NWS QUALITY CONTROL. THEY ALSO MAY NOT
  REPORT WEATHER SUCH AS PRECIPITATION OR FOG.

INZ001>027-021200-
NORTHERN INDIANA

CITY           SKY/WX    TMP DP  RH WIND       PRES   REMARKS
GARY*          CLEAR     16   7  67 W8        30.45R WCI   5
VALPARAISO     MOCLDY     9   4  80 W10       30.43R WCI  -5
MICHIGAN CITY* PTCLDY    18   9  68 W5        30.44R WCI  11
LAPORTE*       PTCLDY    13  10  86 W8        30.43R WCI   2
KNOX*            N/A      7  -4  61 W6        30.44R WCI  -3
SOUTH BEND     PTCLDY    14   8  77 W12       30.41R WCI   0
GOSHEN         PTCLDY    10   5  80 W8        30.39R WCI  -2
MONTICELLO*    MOCLDY    10   6  85 NW6       30.46R WCI   0
LOGANSPORT*    MOCLDY     9   7  92 W3        30.46R
ROCHESTER*     MOCLDY    12  10  92 W6        30.44R WCI   3
WARSAW*        MOCLDY    12   9  85 W6        30.41R WCI   3
ANGOLA*        CLEAR     12  10  92 VRB3      30.36R
FORT WAYNE     PTCLDY     7   4  87 W7        30.42R WCI  -5
HUNTINGTON*    PTCLDY    10   5  79 W7        30.42R WCI  -1
PERU/GRISSOM   MOCLDY     7   3  84 SW6       30.43R WCI  -3
MARION*        MOCLDY    11   6  82 W6        30.45R WCI   1

$$
INZ028>050-021200-
CENTRAL INDIANA

CITY           SKY/WX    TMP DP  RH WIND       PRES   REMARKS
LAFAYETTE      CLOUDY    13   9  84 CALM      30.47R
KOKOMO*        MOCLDY    10   7  85 W6        30.45R WCI   1
MUNCIE*        MOCLDY    15  10  80 NW8       30.44R WCI   4
INDIANAPOLIS   CLOUDY    19  11  70 NW12      30.46R WCI   7

$$
MIZ043>046-050>051-056>058-064>065-071>073-077>080-021200-
SOUTHWEST LOWER MICHIGAN

CITY           SKY/WX    TMP DP  RH WIND       PRES   REMARKS
BATTLE CREEK   CLEAR     19   9  65 W5        30.35R WCI  12
BENTON HARBOR  CLEAR     21  14  74 NW6       30.40R WCI  13
COLDWATER*     CLEAR     14   8  78 W6        30.36R WCI   5
HILLSDALE*     CLEAR     17  12  82 W8        30.32R WCI   6
HOLLAND        PTCLDY    24  13  62 W7        30.37R WCI  16
GRAND RAPIDS   CLEAR     18   9  68 W7        30.34R WCI   9
KALAMAZOO      MOCLDY    19   9  65 W6        30.36R WCI  11
STURGIS*       PTCLDY    10   9  92 CALM      30.37R FOG
THREE RIVERS*  MOCLDY    20  12  70 W6        30.38R WCI  13

$$
OHZ001>008-015>018-024>025-021200-
NORTHWEST OHIO

CITY           SKY/WX    TMP DP  RH WIND       PRES   REMARKS
WAUSEON*       FAIR      14  10  85 W12       30.36R WCI   0
DEFIANCE       CLEAR     15  10  80 SW6       30.40R WCI   6
FINDLAY        PTCLDY    15  10  80 W15       30.38R WCI   0
TOLEDO EXPRESS CLEAR     14  10  84 W10       30.36R WCI   1
TOLEDO METCALF CLEAR     17  11  77 W8        30.37R WCI   7
LIMA           PTCLDY    15  10  80 W12       30.39R HAZE    WCI   2

$$
AND FOR LAKE MICHIGAN COASTAL AND OPEN LAKE BUOY OBSERVATIONS

STATION/POSITION TEMP    WIND        PRES    VSBY  WAVE
                 AIR SEA DIR/SP/G                  HT/PER
                 (F)     (DEG/KT/KT) (MB)    (MI)  (FT/S)
CALUMET HARBOR    18     260/  5/  9 1029.6R
MICHIGAN CITY     18     240/ 11/ 13   N/A
SAINT JOSEPH      23     280/  6/ 11 1030.1R

$$
&&


USA.gov is the U.S. government's official web portal to all federal, state and local government web resources and services.